Probability
0 0 0 0 0 0 0 0 0 0 0 0 0 0 0 0 0 0 0 0 0 0 0 0 0 0 0 0 0 0 0 0 0 0 0 0 0 0 0 0 0 0 0 0 0 0 0 0 0
0 0 0 0 0 0 0 0 0 0 0 0 0 0 0 0 0 0 0 0 0 0 0 0 0 1 1 0 0 0 0 0 0 0 0 0 0 0 0 0 0 0 0 0 0 0 0 0 0
0 0 0 0 0 0 0 0 0 0 0 0 0 0 0 0 0 0 0 0 0 0 0 0 1 2 2 1 1 0 0 0 0 0 0 0 0 0 0 0 0 0 0 0 0 0 0 0 0
0 0 0 0 0 0 0 0 0 0 0 0 0 0 0 0 0 0 0 0 0 0 0 0 1 3 3 3 2 1 0 0 0 0 0 0 0 0 0 0 0 0 0 0 0 0 0 0 0
0 0 0 0 0 0 0 0 0 0 0 0 0 0 0 0 0 0 0 0 0 0 0 1 2 3 3 3 2 1 0 0 0 0 0 0 0 0 0 0 0 0 0 0 0 0 0 0 0
0 0 0 0 0 0 0 0 0 0 0 0 0 0 0 0 0 0 0 0 0 0 0 1 2 3 3 3 2 1 0 0 0 0 0 0 0 0 0 0 0 0 0 0 0 0 0 0 0
0 0 0 0 0 0 0 0 0 0 0 0 0 0 0 0 0 0 0 0 0 0 0 0 1 1 2 2 2 1 0 0 0 0 0 0 0 0 0 0 0 0 0 0 0 0 0 0 0
0 0 0 0 0 0 0 0 0 0 0 0 0 0 0 0 0 0 0 0 0 0 0 0 0 0 1 1 1 0 0 0 0 0 0 0 0 0 0 0 0 0 0 0 0 0 0 0 0
0 0 0 0 0 0 0 0 0 0 0 0 0 0 0 0 0 0 0 0 0 0 0 0 0 0 0 0 0 0 0 0 0 0 0 0 0 0 0 0 0 0 0 0 0 0 0 0 0
0 0 0 0 0 0 0 0 0 0 0 0 0 0 0 0 0 0 0 0 0 0 0 0 0 0 0 0 0 0 0 0 0 0 0 0 0 0 0 0 0 0 0 0 0 0 0 0 0
0 0 0 0 0 0 0 0 0 0 0 0 0 0 0 0 0 0 0 0 0 0 0 0 0 0 0 0 0 0 0 0 0 0 0 0 0 0 0 0 0 0 0 0 0 0 0 0 0
0 0 0 0 0 0 0 0 0 0 0 0 0 0 0 0 0 0 0 0 0 0 0 0 0 0 0 0 0 0 0 0 0 0 0 0 0 0 0 0 0 0 0 0 0 0 0 0 0
0 0 0 0 0 0 0 0 0 0 0 0 0 0 0 0 0 0 0 0 0 0 0 0 0 0 0 0 0 0 0 0 0 0 0 0 0 0 0 0 0 0 0 0 0 0 0 0 0
0 0 0 0 0 0 0 0 0 0 0 0 0 0 0 0 0 0 0 0 0 0 0 0 0 0 0 0 0 0 0 0 0 0 0 0 0 0 0 0 0 0 0 0 0 0 0 0 0
0 0 0 0 0 0 0 0 0 0 0 0 0 0 0 0 0 0 0 0 0 0 0 0 0 0 0 0 0 0 0 0 0 0 0 0 0 0 0 0 0 0 0 0 0 0 0 0 0
0 0 0 0 0 0 0 0 0 0 0 0 0 0 0 0 0 0 0 0 0 0 0 0 0 0 0 0 0 0 0 0 0 0 0 0 0 0 0 0 0 0 0 0 0 0 0 0 0
0 0 0 0 0 0 0 0 0 0 0 0 0 0 0 0 0 0 0 0 0 0 0 0 0 0 0 0 0 0 0 0 0 0 0 0 0 0 0 0 0 0 0 0 0 0 0 0 0
0 0 0 0 0 0 0 0 0 0 0 0 0 0 0 0 0 0 0 0 0 0 0 0 0 0 0 0 0 0 0 0 0 0 0 0 0 0 0 0 0 0 0 0 0 0 0 0 0
0 0 0 0 0 0 0 0 0 0 0 0 0 0 0 0 0 0 0 0 0 0 0 0 0 0 0 0 0 0 0 0 0 0 0 0 0 0 0 0 0 0 0 0 0 0 0 0 0
0 0 0 0 0 0 0 0 0 0 0 0 0 0 0 0 0 0 0 0 0 0 0 0 0 0 0 0 0 0 0 0 0 0 0 0 0 0 0 0 0 0 0 0 0 0 0 0 0
0 0 0 0 0 0 0 0 0 0 0 0 0 0 0 0 0 0 0 0 0 0 0 0 0 0 0 0 0 0 0 0 0 0 0 0 0 0 0 0 0 0 0 0 0 0 0 0 0
0 0 0 0 0 0 0 0 0 0 0 0 0 0 0 0 0 0 0 0 0 0 0 0 0 0 0 0 0 0 0 0 0 0 0 0 0 0 0 0 0 0 0 0 0 0 0 0 0
0 0 0 0 0 0 0 0 0 0 0 0 0 0 0 0 0 0 0 0 0 0 0 0 0 0 0 0 0 0 0 0 0 0 0 0 0 0 0 0 0 0 0 0 0 0 0 0 0
0 0 0 0 0 0 0 0 0 0 0 0 0 0 0 0 0 0 0 0 0 0 0 0 0 0 0 0 0 0 0 0 0 0 0 0 0 0 0 0 0 0 0 0 0 0 0 0 0
0 0 0 0 0 0 0 0 0 0 0 0 0 0 0 0 0 0 0 0 0 0 0 0 0 0 0 0 0 0 0 0 0 0 0 0 0 0 0 0 0 0 0 0 0 0 0 0 0
0 0 0 0 0 0 0 0 0 0 0 0 0 0 0 0 0 0 0 0 0 0 0 0 0 0 0 0 0 0 0 0 0 0 0 0 0 0 0 0 0 0 0 0 0 0 0 0 0
0 0 0 0 0 0 0 0 0 0 0 0 0 0 0 0 0 0 0 0 0 0 0 0 0 0 0 0 0 0 0 0 0 0 0 0 0 0 0 0 0 0 0 0 0 0 0 0 0
0 0 0 0 0 0 0 0 0 0 0 0 0 0 0 0 0 0 0 0 0 0 0 0 0 0 0 0 0 0 0 0 0 0 0 0 0 0 0 0 0 0 0 0 0 0 0 0 0
0 0 0 0 0 0 0 0 0 0 0 0 0 0 0 0 0 0 0 0 0 0 0 0 0 0 0 0 0 0 0 0 0 0 0 0 0 0 0 0 0 0 0 0 0 0 0 0 0
0 0 0 0 0 0 0 0 0 0 0 0 0 0 0 0 0 0 0 0 0 0 0 0 0 0 0 0 0 0 0 0 0 0 0 0 0 0 0 0 0 0 0 0 0 0 0 0 0
Wind_Speed
2 4 3 4 5 2 5 7 4 3 4 3 3 6 9 8 7 5 2 10 11 12 12 16 20 19 18 17 16 15 14 14 13 13 14 13 13 13 13 13 13 13 13 13 13 13 14 14 14
2 2 4 5 4 3 7 6 6 7 4 2 2 4 5 4 2 5 6 8 12 13 11 12 20 20 19 18 17 16 15 14 14 14 13 13 13 13 13 13 13 13 13 13 13 13 13 14 14
3 2 4 4 5 7 7 6 8 5 3 2 2 1 4 4 4 7 6 11 12 11 9 13 21 20 19 18 18 16 15 14 14 13 13 13 13 13 13 13 13 13 12 12 12 12 12 13 13
3 4 4 3 7 7 6 4 3 1 2 3 3 2 1 1 5 6 9 13 14 10 9 13 21 20 19 19 18 17 16 15 14 13 13 13 13 12 12 12 12 12 11 11 11 11 11 12 12
4 4 2 4 7 6 6 5 3 3 3 3 5 5 2 2 4 8 13 14 15 11 9 12 20 20 20 19 18 17 16 15 14 14 13 13 13 12 12 12 11 11 11 11 11 11 11 11 11
4 4 3 7 8 5 5 4 3 4 3 3 6 6 3 1 5 9 12 12 12 12 10 11 20 20 20 19 19 18 17 15 14 14 13 13 12 12 12 11 11 11 11 10 10 10 10 10 11
5 4 5 5 4 6 6 5 5 6 5 7 8 7 2 2 5 10 10 9 9 9 9 8 10 14 18 19 18 18 17 16 15 14 13 13 12 12 12 11 11 10 10 10 10 10 9 9 9
5 4 4 5 5 6 4 4 5 8 7 4 8 9 7 7 10 11 10 9 8 8 8 7 8 9 10 12 16 17 16 16 15 14 13 12 12 11 12 10 10 10 10 9 9 8 8 8 8
5 3 7 7 7 5 3 3 3 3 4 3 3 3 2 15 17 14 11 9 10 10 8 7 8 8 8 9 12 13 14 14 13 11 13 10 5 5 6 8 9 9 9 8 8 8 7 7 7
5 8 10 6 6 4 2 3 3 2 3 3 1 3 8 17 19 19 18 19 18 17 13 9 9 9 9 8 8 7 7 7 7 6 7 5 4 4 5 7 8 8 7 7 7 7 7 6 3
8 9 7 7 5 3 2 3 2 5 5 8 9 9 14 17 17 18 19 19 19 17 15 12 10 10 9 7 6 5 4 5 6 7 7 6 4 3 3 2 2 3 4 4 4 5 3 3 2
7 8 7 6 6 4 4 3 2 6 8 6 7 13 18 20 20 20 20 18 14 15 16 13 12 10 9 7 6 6 5 5 5 6 8 6 4 3 3 2 2 2 2 3 2 2 2 2 2
8 5 7 8 6 6 5 6 5 6 7 2 5 12 18 20 20 18 15 13 13 16 17 15 14 13 10 8 7 7 7 7 7 6 7 7 5 4 4 3 2 2 2 2 2 2 2 2 2
8 8 7 6 7 5 7 8 5 9 4 3 8 13 16 19 19 13 11 13 15 17 18 16 16 14 12 10 9 8 7 7 7 7 7 8 6 5 4 4 3 3 2 2 2 2 1 1 1
4 5 7 8 8 6 4 11 10 10 5 6 8 10 13 15 13 15 17 17 18 18 17 17 16 15 15 13 10 8 7 8 7 7 8 8 7 7 5 4 4 3 3 3 2 2 1 1 1
5 6 9 8 8 8 8 15 9 8 8 9 9 9 10 13 13 14 14 13 13 13 15 17 15 17 17 14 11 9 8 8 7 7 8 9 9 8 6 5 4 4 3 3 3 2 2 1 1
6 9 11 7 8 8 11 11 10 7 9 10 10 10 11 12 12 12 12 13 13 15 15 17 17 18 18 15 11 9 8 9 8 7 8 9 10 9 7 6 5 5 4 3 3 2 2 2 1
10 9 8 10 6 9 9 9 9 5 9 11 10 10 10 12 16 14 14 13 13 13 14 16 17 16 15 11 8 7 8 9 8 9 9 11 9 10 8 6 6 6 4 4 3 3 2 2 2
8 8 8 7 6 8 11 12 13 9 7 9 9 9 11 14 14 11 12 12 11 12 14 17 18 17 14 13 13 12 12 11 10 9 11 12 11 11 9 6 7 6 6 6 6 3 3 2 2
10 10 8 5 5 7 7 11 11 11 10 10 11 12 13 12 10 10 11 11 14 16 17 18 19 19 18 15 14 12 10 8 8 7 10 12 12 12 10 9 8 8 6 6 6 4 3 2 2
16 15 12 6 1 3 3 8 9 8 8 8 9 11 11 13 14 12 12 13 14 16 18 18 20 20 20 17 10 7 6 5 7 10 10 12 13 13 11 11 9 9 8 7 7 6 6 4 2
20 14 10 8 4 5 4 7 9 8 8 10 12 11 11 12 12 11 11 11 14 17 17 18 19 20 20 18 15 17 13 13 14 10 10 11 13 13 12 12 11 10 8 8 8 7 5 5 4
9 9 11 10 8 7 5 6 9 5 10 12 13 13 14 13 12 12 12 13 14 14 14 15 17 18 19 19 20 19 16 12 8 7 11 11 11 12 13 12 11 10 9 9 9 7 6 5 5
6 6 5 6 7 15 15 10 10 8 12 9 9 12 13 13 12 12 11 9 9 9 10 12 15 17 18 20 20 20 19 14 12 11 13 11 9 10 13 12 12 11 9 10 9 9 9 6 5
11 9 8 9 11 12 10 12 13 10 10 11 11 11 12 11 10 10 10 9 9 10 11 12 15 16 17 19 20 20 20 17 17 15 14 12 10 9 13 12 11 10 10 10 9 9 8 8 7
16 15 11 10 9 5 7 14 11 10 9 9 10 10 9 10 9 10 10 10 9 10 11 12 15 16 17 19 20 18 18 14 12 13 12 13 11 12 13 13 12 11 11 10 9 7 8 7 7
13 14 8 4 2 4 7 7 9 5 7 9 10 10 11 10 9 9 8 8 8 9 10 12 14 14 15 17 17 16 17 15 14 13 11 10 9 9 12 13 12 11 11 11 10 7 8 8 7
8 9 7 9 9 8 5 7 7 7 11 11 11 12 12 9 8 7 7 7 7 8 8 9 11 13 13 14 15 13 15 15 13 12 13 12 11 11 13 13 13 12 11 11 10 8 8 8 7
7 9 7 7 6 7 6 8 9 11 11 12 12 11 10 9 8 6 5 5 5 5 6 7 8 9 10 12 12 12 13 13 12 12 13 13 12 12 14 14 13 13 12 11 10 9 9 9 8
7 8 7 8 6 6 4 8 4 7 7 7 8 8 6 6 5 4 4 4 4 5 6 7 8 9 9 10 10 11 11 12 13 13 13 13 13 13 13 13 13 12 12 12 12 11 11 11 10
Wind_Direction
87 84 80 61 62 61 235 239 227 239 224 216 168 161 165 169 171 201 143 146 141 152 164 167 160 158 155 153 149 143 139 136 131 127 124 120 116 110 106 104 100 96 93 91 89 88 87 86 85
118 103 63 69 113 209 252 238 225 225 205 124 106 123 145 198 184 138 146 166 150 154 160 161 161 158 156 154 149 145 142 139 134 132 127 125 122 117 112 107 103 98 95 93 92 92 91 87 85
120 72 96 103 167 199 230 228 224 244 217 179 134 155 178 187 175 175 177 158 148 153 156 164 161 158 157 154 151 149 145 141 137 134 131 129 125 120 115 110 106 102 99 98 97 97 95 91 87
102 60 66 127 223 224 223 235 202 236 222 198 157 155 224 349 179 176 150 152 148 152 155 166 162 160 158 156 153 151 148 144 142 139 136 133 129 124 119 115 110 107 105 103 102 101 97 93 91
70 95 135 238 238 242 240 249 224 214 212 188 158 163 176 18 104 132 147 154 153 153 157 167 163 162 160 157 156 154 152 150 148 145 141 137 133 129 125 122 119 116 112 110 108 105 101 97 94
79 91 163 233 243 253 252 229 199 219 217 186 161 160 179 88 129 145 150 153 155 155 158 165 166 164 162 160 159 158 156 156 154 151 147 143 141 136 133 130 126 122 118 114 111 108 104 99 95
136 143 205 224 245 253 242 198 198 211 216 208 174 156 214 170 158 144 141 141 148 153 157 164 165 164 164 163 163 161 161 159 159 155 151 148 146 144 141 137 132 127 121 117 113 110 106 101 96
156 153 212 218 221 248 235 196 205 192 216 193 155 160 201 182 146 131 128 137 149 158 164 165 161 159 161 163 165 164 163 162 161 157 152 151 152 149 144 140 137 132 127 122 117 112 106 98 92
128 158 217 212 201 234 229 215 236 182 156 163 193 189 188 136 139 138 142 154 167 174 177 170 163 160 157 160 167 164 164 164 161 155 150 141 124 120 130 140 144 140 136 129 121 111 99 86 77
161 208 222 209 198 209 222 215 216 152 165 183 164 63 121 143 153 159 167 174 180 185 185 178 170 164 160 164 163 159 158 158 147 140 135 123 118 120 123 152 151 145 134 124 116 103 84 75 57
188 213 221 226 222 220 239 247 217 167 207 206 193 170 154 160 166 173 179 183 186 184 184 182 176 169 166 163 159 157 151 147 142 141 135 129 121 118 111 115 128 109 96 77 75 70 66 69 66
201 228 218 220 213 221 230 241 239 200 224 226 200 163 165 172 178 184 186 188 182 183 188 184 179 175 172 165 164 161 157 155 153 151 146 140 135 134 135 129 121 103 95 97 82 81 73 66 62
219 235 225 228 230 230 239 241 238 246 250 259 143 156 176 183 190 193 190 182 181 188 189 187 183 181 176 170 170 170 168 164 159 155 156 153 152 155 152 148 142 136 126 125 119 106 94 73 55
215 223 241 236 228 225 232 252 226 248 238 174 161 178 191 193 194 187 182 184 190 193 192 188 188 186 181 181 178 175 172 166 163 164 165 162 160 160 159 157 157 160 157 150 145 144 127 97 80
196 220 253 237 222 222 212 259 231 233 202 201 196 196 200 207 198 195 193 192 193 194 191 191 190 187 188 186 182 177 175 170 172 171 169 169 167 166 164 163 170 175 162 151 136 131 112 110 93
183 211 240 234 204 200 185 249 249 224 194 212 215 210 211 216 210 208 203 200 195 189 190 192 190 192 193 191 185 182 179 176 177 174 174 176 174 170 165 169 180 170 157 151 146 140 127 121 105
194 212 225 233 202 183 192 236 247 219 195 215 218 213 215 221 224 219 210 204 195 191 190 191 193 194 194 192 187 183 180 182 180 177 178 181 179 175 172 178 177 163 159 159 156 140 143 146 130
199 204 210 214 206 181 205 231 247 229 197 217 221 217 216 220 225 219 211 207 199 193 191 193 195 196 191 187 182 181 184 188 186 186 186 182 183 179 176 177 173 164 161 163 161 150 132 129 128
190 192 211 217 199 186 217 232 239 237 216 226 229 222 221 226 230 224 215 207 198 193 191 194 195 194 187 188 190 192 196 194 193 192 188 185 184 181 180 178 172 172 176 177 168 149 140 126 123
212 215 220 235 205 199 229 243 240 233 222 218 222 223 222 227 233 227 215 206 201 199 198 197 197 194 192 195 196 196 191 191 191 187 189 188 186 184 185 181 179 179 175 171 170 155 142 135 138
216 215 214 212 195 219 245 272 249 244 226 228 226 224 221 219 224 223 214 209 205 204 201 199 199 197 196 194 184 171 159 160 181 192 195 193 189 188 187 186 181 180 178 181 181 172 159 157 150
224 213 206 212 216 240 202 263 260 238 241 234 232 229 229 227 223 222 216 209 206 208 204 201 199 198 196 189 186 184 190 195 197 192 192 188 190 189 188 186 184 183 183 182 183 178 167 151 158
214 186 197 210 223 245 225 246 266 234 240 241 232 228 230 228 224 224 220 214 209 205 201 201 199 198 194 191 192 193 198 200 185 173 180 186 190 190 189 187 185 185 185 185 179 174 173 166 160
174 149 181 203 214 239 224 222 259 219 220 232 231 228 229 230 228 229 226 215 210 201 196 195 195 198 194 192 194 196 198 190 177 181 185 187 187 190 191 188 187 186 185 184 183 180 179 178 167
181 170 189 200 211 232 199 212 243 221 214 216 226 231 231 227 225 225 221 212 208 199 195 192 193 197 193 193 196 199 199 194 191 188 189 186 185 190 193 188 188 187 187 184 178 178 181 180 177
194 190 197 199 204 222 182 218 240 224 218 220 227 232 234 229 225 226 222 213 210 204 196 191 194 196 193 194 198 199 197 196 197 192 189 190 192 193 187 187 188 186 183 180 178 179 182 180 183
186 200 194 183 182 204 220 251 287 238 232 230 232 233 235 233 229 227 223 213 209 204 199 194 194 194 193 194 195 196 196 196 195 190 187 189 187 183 182 185 186 185 182 180 177 183 183 180 185
187 175 173 194 194 219 231 230 230 211 218 222 224 229 233 232 230 226 221 215 210 205 201 194 193 194 193 192 194 195 196 196 193 186 189 189 185 180 180 184 185 183 182 180 179 182 180 178 184
174 184 184 187 195 189 217 245 217 199 203 211 222 226 227 227 225 222 218 211 202 194 189 189 190 189 188 190 190 190 192 191 187 189 190 188 183 180 182 184 184 184 183 181 182 184 178 182 183
172 174 175 189 205 194 200 255 245 205 211 213 226 230 230 226 221 215 205 191 185 187 185 185 185 186 187 185 184 188 186 184 187 190 188 185 183 183 183 181 183 185 185 184 185 185 183 184 186